Location: Newark
(58.8333°N, 23.5833°E)
Time: 19:48:01
(UTC+00:00)

METEOR M2 - Pass Details

Date: 15 December 2019
Orbit: 819 x 827 km, 98.5° (Epoch: 23 January)

Event Time Altitude Azimuth Distance (km) Brightness Sun altitude
Exits shadow 14:37:47 - 50° (NE) 2,515 ? -7.6°
Reaches altitude 10° 14:38:33 10° 42° (NE) 2,430 ? -7.6°
Maximum altitude 14:39:44 11° 29° (NNE) 2,378 ? -7.8°
Drops below altitude 10° 14:40:56 10° 16° (NNE) 2,431 ? -7.9°
Sets 14:45:24 0° 341° (NNW) 3,367 ? -8.4°
